Content
SEND FEEDBACK

Daily
Averages
Monthly
Summary
United States of America

EAST SAINT LOUIS, ILLINOIS


Home > North America > United States > Illinois
Elevation: 466 feet     Latitude: 38 37N     Longitude: 090 12W

WEATHER
 
SELECT A DAY
Number of Records: 188,449;   Date Range: 1/1/95 - 9/30/14
 
SHARE

PRINT THIS DATA

[ ← Previous Day ]
WEATHER ALMANAC - MAY 6, 2013
[ Next Day → ]
[ °C ]   °F
Weather ElementAverageHighLow
Temperature59.6 °F68 °F (1:53 pm)53.1 °F (1:53 am)
Dewpoint52.8 °F57 °F (11:53 pm)50 °F (1:53 am)
Humidity79 %94 % (1:22 am)63 % (11:53 am)
Barometer29.95 in29.98 in (11:53 am)29.91 in (1:53 am)
Wind Speed7.2 mph13.8 mph (8:53 am)
Wind Gust20.7 mph (10:53 am)
Weather ElementAverage
Visibility9.8 mi
Wind DirectionESE (122.1 °)

Weather ElementTotal
Precipitation0.01 in
Heating Degree Days4.5 (Base 65)
Growing Degree Days10.6 (Base 50)
Averaged from 28 records on May 6, 2013
WEATHER CONDITIONS BREAKOUT
WIND DIRECTION BREAKOUT
WEATHER BY HOUR - MAY 6, 2013
[ °C ]   °F
Local TimeTemperatureDewpointHumidityBarometerVisibilityWind DirectionWind SpeedGust SpeedPrecipitationEventsConditions
12:53 AM55.0 °F52.0 °F89 %29.93 in6.0 miNNE (30°)11.5 mph0.00 inRainLight Rain
1:22 AM53.6 °F51.8 °F94 %29.92 in10.0 miNNE (20°)6.9 mph0.00 inOvercast
1:53 AM53.1 °F50.0 °F89 %29.91 in10.0 miNorth (10°)5.8 mph0.00 inMostly Cloudy
2:05 AM53.6 °F50.0 °F88 %29.91 in10.0 miNorth (360°)5.8 mphScattered Clouds
2:53 AM54.0 °F50.0 °F86 %29.91 in10.0 miNorth (360°)4.6 mphOvercast
3:04 AM53.6 °F50.0 °F88 %29.91 in10.0 miNorth (360°)5.8 mphOvercast
3:53 AM54.0 °F51.1 °F90 %29.91 in10.0 miNNW (340°)6.9 mphOvercast
4:53 AM55.0 °F51.1 °F86 %29.92 in10.0 miNNE (20°)9.2 mphOvercast
5:45 AM55.4 °F51.8 °F88 %29.93 in10.0 miNNE (30°)4.6 mph0.00 inRainLight Rain
5:53 AM55.0 °F51.1 °F86 %29.93 in10.0 miNE (40°)5.8 mph0.00 inRainLight Rain
6:53 AM55.0 °F51.1 °F86 %29.95 in10.0 miNorth (10°)4.6 mph0.00 inOvercast
7:53 AM57.0 °F52.0 °F83 %29.96 in10.0 miNNW (330°)8.1 mphOvercast
8:53 AM57.9 °F52.0 °F81 %29.97 in10.0 miNNW (340°)13.8 mphOvercast
9:53 AM60.1 °F52.0 °F75 %29.97 in10.0 miNorth (360°)10.4 mphOvercast
10:53 AM63.0 °F53.1 °F70 %29.97 in10.0 miNNE (30°)13.8 mph20.7 mphOvercast
11:53 AM63.0 °F50.0 °F63 %29.98 in10.0 miNNE (20°)11.5 mph0.01 inOvercast
12:53 PM66.0 °F53.1 °F63 %29.96 in10.0 miNNE (20°)9.2 mphOvercast
1:53 PM68.0 °F55.0 °F63 %29.96 in10.0 miNorth (360°)12.7 mphOvercast
2:53 PM66.9 °F55.0 °F66 %29.95 in10.0 miNorth (10°)11.5 mphOvercast
3:53 PM66.0 °F53.1 °F63 %29.95 in10.0 miNorth (10°)12.7 mphOvercast
4:53 PM66.9 °F55.0 °F66 %29.94 in10.0 miNorth (10°)11.5 mphOvercast
5:53 PM66.0 °F54.0 °F65 %29.94 in10.0 miNorth (10°)9.2 mphOvercast
6:53 PM64.0 °F55.0 °F73 %29.94 in10.0 miNNW (340°)5.8 mphMostly Cloudy
7:53 PM64.0 °F55.9 °F75 %29.96 in10.0 miCalmOvercast
8:53 PM62.1 °F55.0 °F78 %29.96 in10.0 miCalmOvercast
9:53 PM61.0 °F55.9 °F83 %29.98 in10.0 miCalmOvercast
10:53 PM60.1 °F55.9 °F86 %29.98 in8.0 miCalmOvercast
11:53 PM60.1 °F57.0 °F90 %29.98 in10.0 miCalmOvercast
Hourly data recorded from KCPS, located miles away from East Saint Louis, Illinois







STORIES FROM OUR PARTNERS